Hourly Weather Zira

Today, 8 July, Wednesday

Time Temperature Precipitation Wind Pressure Humidity
00:00 +32°C° 0 mm 2 mps 755 mmHg 34%
01:00 +31°C° 0 mm 2 mps 755 mmHg 35%
02:00 +31°C° 0 mm 2 mps 755 mmHg 36%
03:00 +31°C° 0 mm 2 mps 755 mmHg 36%
04:00 +31°C° 0 mm 2 mps 755 mmHg 37%
05:00 +31°C° 0 mm 2 mps 755 mmHg 38%
06:00 +31°C° 0 mm 2 mps 755 mmHg 38%
07:00 +32°C° 0 mm 2 mps 755 mmHg 36%
08:00 +34°C° 0 mm 2 mps 755 mmHg 33%
09:00 +35°C° 0 mm 2 mps 755 mmHg 31%
10:00 +36°C° 0 mm 2 mps 755 mmHg 29%
11:00 +37°C° 0 mm 2 mps 755 mmHg 28%
12:00 +37°C° 0 mm 2 mps 755 mmHg 26%
13:00 +37°C° 0 mm 3 mps 755 mmHg 26%
14:00 +37°C° 0 mm 3 mps 755 mmHg 26%
15:00 +37°C° 0 mm 3 mps 754 mmHg 26%
16:00 +37°C° 0 mm 3 mps 754 mmHg 27%
17:00 +36°C° 0 mm 2 mps 754 mmHg 28%
18:00 +35°C° 0 mm 1 mps 754 mmHg 28%
19:00 +34°C° 0 mm 1 mps 754 mmHg 30%
20:00 +33°C° 0 mm 1 mps 754 mmHg 32%
21:00 +32°C° 0 mm 1 mps 754 mmHg 33%
22:00 +32°C° 0 mm 1 mps 754 mmHg 35%
23:00 +31°C° 0 mm 1 mps 754 mmHg 36%

Tomorrow, 9 July, Thursday

Time Temperature Precipitation Wind Pressure Humidity
00:00 +31°C° 0 mm 1 mps 754 mmHg 37%
01:00 +31°C° 0 mm 1 mps 754 mmHg 38%
02:00 +28°C° 0 mm 0 mps 754 mmHg 39%
03:00 +28°C° 0 mm 0 mps 754 mmHg 40%
04:00 +30°C° 0 mm 1 mps 755 mmHg 39%
05:00 +31°C° 0 mm 2 mps 755 mmHg 38%
06:00 +31°C° 0 mm 3 mps 755 mmHg 36%
07:00 +32°C° 0 mm 5 mps 756 mmHg 45%
08:00 +32°C° 0 mm 8 mps 756 mmHg 54%
09:00 +31°C° 0 mm 10 mps 756 mmHg 63%
10:00 +31°C° 0 mm 10 mps 757 mmHg 63%
11:00 +31°C° 0 mm 9 mps 757 mmHg 63%
12:00 +31°C° 0 mm 9 mps 757 mmHg 63%
13:00 +31°C° 0 mm 9 mps 756 mmHg 63%
14:00 +31°C° 0 mm 9 mps 756 mmHg 63%
15:00 +31°C° 0 mm 9 mps 756 mmHg 62%
16:00 +31°C° 0 mm 9 mps 756 mmHg 62%
17:00 +31°C° 0 mm 8 mps 756 mmHg 62%
18:00 +31°C° 0 mm 8 mps 756 mmHg 62%
19:00 +31°C° 0 mm 9 mps 756 mmHg 62%
20:00 +31°C° 0 mm 9 mps 757 mmHg 62%
21:00 +31°C° 0 mm 10 mps 757 mmHg 62%
22:00 +31°C° 0 mm 10 mps 757 mmHg 60%
23:00 +31°C° 0 mm 11 mps 757 mmHg 59%

Day after tomorrow, 10 July, Friday

Time Temperature Precipitation Wind Pressure Humidity
00:00 +31°C° 0 mm 11 mps 757 mmHg 57%
01:00 +31°C° 0 mm 11 mps 757 mmHg 58%
02:00 +31°C° 0 mm 11 mps 757 mmHg 59%
03:00 +31°C° 0 mm 11 mps 757 mmHg 59%
04:00 +31°C° 0 mm 12 mps 757 mmHg 60%
05:00 +31°C° 0 mm 13 mps 758 mmHg 61%
06:00 +31°C° 0 mm 14 mps 758 mmHg 62%
07:00 +31°C° 0 mm 13 mps 758 mmHg 63%
08:00 +31°C° 0 mm 13 mps 759 mmHg 64%
09:00 +31°C° 0 mm 13 mps 759 mmHg 65%
10:00 +31°C° 0 mm 13 mps 759 mmHg 65%
11:00 +31°C° 0 mm 13 mps 759 mmHg 64%
12:00 +31°C° 0 mm 12 mps 759 mmHg 63%
13:00 +31°C° 0 mm 12 mps 759 mmHg 63%
14:00 +31°C° 0 mm 12 mps 759 mmHg 63%
15:00 +31°C° 0 mm 12 mps 758 mmHg 63%
16:00 +29°C° 0 mm 12 mps 758 mmHg 64%
17:00 +29°C° 0 mm 12 mps 758 mmHg 65%
18:00 +29°C° 0 mm 12 mps 758 mmHg 66%
19:00 +29°C° 0 mm 12 mps 759 mmHg 64%
20:00 +29°C° 0 mm 12 mps 759 mmHg 63%
21:00 +29°C° 0 mm 12 mps 759 mmHg 62%
22:00 +29°C° 0 mm 12 mps 759 mmHg 62%
23:00 +29°C° 0 mm 12 mps 759 mmHg 61%

11 July, Saturday

Time Temperature Precipitation Wind Pressure Humidity
00:00 +29°C° 0 mm 11 mps 759 mmHg 61%
01:00 +29°C° 0 mm 12 mps 759 mmHg 61%
02:00 +29°C° 0 mm 12 mps 759 mmHg 61%
03:00 +29°C° 0 mm 12 mps 758 mmHg 62%
04:00 +29°C° 0 mm 12 mps 759 mmHg 63%
05:00 +29°C° 0 mm 12 mps 759 mmHg 63%
06:00 +29°C° 0 mm 12 mps 759 mmHg 64%
07:00 +31°C° 0 mm 12 mps 759 mmHg 63%
08:00 +31°C° 0 mm 12 mps 759 mmHg 62%
09:00 +31°C° 0 mm 12 mps 759 mmHg 61%
10:00 +31°C° 0.1 mm 12 mps 759 mmHg 60%
11:00 +32°C° 0.1 mm 11 mps 759 mmHg 58%
12:00 +32°C° 0.1 mm 11 mps 759 mmHg 56%
13:00 +32°C° 0 mm 11 mps 758 mmHg 59%
14:00 +32°C° 0 mm 11 mps 758 mmHg 62%
15:00 +32°C° 0 mm 11 mps 758 mmHg 64%
16:00 +31°C° 0 mm 11 mps 758 mmHg 67%
17:00 +31°C° 0 mm 11 mps 758 mmHg 70%
18:00 +29°C° 0 mm 11 mps 758 mmHg 72%
19:00 +29°C° 0 mm 11 mps 758 mmHg 74%
20:00 +29°C° 0 mm 10 mps 758 mmHg 76%
21:00 +28°C° 0 mm 10 mps 758 mmHg 78%
22:00 +28°C° 0 mm 10 mps 758 mmHg 76%
23:00 +28°C° 0 mm 10 mps 758 mmHg 75%

12 July, Sunday

Time Temperature Precipitation Wind Pressure Humidity
00:00 +28°C° 0 mm 9 mps 757 mmHg 73%
01:00 +28°C° 0 mm 9 mps 757 mmHg 72%
02:00 +28°C° 0 mm 10 mps 757 mmHg 71%
03:00 +28°C° 0 mm 10 mps 757 mmHg 70%
04:00 +28°C° 0 mm 10 mps 757 mmHg 70%
05:00 +28°C° 0 mm 9 mps 757 mmHg 71%
06:00 +28°C° 0 mm 9 mps 757 mmHg 71%
07:00 +29°C° 0 mm 9 mps 757 mmHg 70%
08:00 +29°C° 0 mm 9 mps 757 mmHg 70%
09:00 +29°C° 0 mm 9 mps 757 mmHg 69%
10:00 +29°C° 0 mm 9 mps 757 mmHg 69%
11:00 +29°C° 0 mm 8 mps 757 mmHg 70%
12:00 +29°C° 0 mm 8 mps 757 mmHg 71%
13:00 +29°C° 0 mm 7 mps 756 mmHg 70%
14:00 +30°C° 0 mm 7 mps 756 mmHg 69%
15:00 +30°C° 0 mm 7 mps 756 mmHg 68%
16:00 +30°C° 0 mm 6 mps 756 mmHg 69%
17:00 +30°C° 0 mm 6 mps 755 mmHg 70%
18:00 +29°C° 0 mm 5 mps 755 mmHg 71%
19:00 +29°C° 0 mm 5 mps 756 mmHg 72%
20:00 +29°C° 0 mm 5 mps 756 mmHg 73%
21:00 +29°C° 0 mm 5 mps 756 mmHg 74%
22:00 +29°C° 0 mm 5 mps 756 mmHg 74%
23:00 +28°C° 0 mm 5 mps 755 mmHg 73%

13 July, Monday

Time Temperature Precipitation Wind Pressure Humidity
00:00 +28°C° 0 mm 5 mps 755 mmHg 73%
01:00 +28°C° 0 mm 6 mps 755 mmHg 73%
02:00 +28°C° 0 mm 6 mps 755 mmHg 73%
03:00 +28°C° 0 mm 7 mps 754 mmHg 73%
04:00 +29°C° 0 mm 7 mps 754 mmHg 72%
05:00 +29°C° 0 mm 7 mps 754 mmHg 71%
06:00 +29°C° 0 mm 7 mps 755 mmHg 70%
07:00 +29°C° 0 mm 7 mps 755 mmHg 67%
08:00 +30°C° 0 mm 6 mps 755 mmHg 64%
09:00 +30°C° 0 mm 6 mps 755 mmHg 61%
10:00 +32°C° 0 mm 5 mps 754 mmHg 59%
11:00 +32°C° 0 mm 4 mps 754 mmHg 57%
12:00 +33°C° 0 mm 4 mps 754 mmHg 54%
13:00 +33°C° 0 mm 4 mps 754 mmHg 54%
14:00 +33°C° 0 mm 4 mps 754 mmHg 53%
15:00 +33°C° 0 mm 4 mps 753 mmHg 53%
16:00 +32°C° 0 mm 4 mps 753 mmHg 55%
17:00 +32°C° 0 mm 4 mps 753 mmHg 57%
18:00 +32°C° 0 mm 4 mps 753 mmHg 59%
19:00 +30°C° 0 mm 5 mps 753 mmHg 62%
20:00 +30°C° 0 mm 5 mps 753 mmHg 66%
21:00 +29°C° 0 mm 5 mps 754 mmHg 69%
22:00 +29°C° 0 mm 5 mps 754 mmHg 69%
23:00 +29°C° 0 mm 6 mps 753 mmHg 68%
Show more